[[{"header":{"parameterUnit":"m.s-1","parameterCategory":2,"la1":30.2991,"la2":30.254,"lo1":-89.0895,"lo2":-89.0444,"dy":0.0017,"dx":0.0017,"nx":28,"ny":28,"refTime":"2024-04-18T09:00:00:Z","depth":"0","parameterNumber":2,"parameterNumberName":"U-component_of_CURRENTS"},"data":[0,0,0,0,0,0,0,0,0,0,0,0,0,0,0,0,0,0,0,0,0,0,0,0,0,0,0,0,0,0,0,0,0,0,0,0,0,0,0,0,0,0,0,0,0,0,0,0,0,0,0,0,0,0,0,0,0,0,-0.2044,-0.2045,0,-0.2098,-0.2098,-0.2099,-0.2107,-0.2106,-0.2106,-0.2106,-0.2039,-0.2037,-0.2035,0,0,0,0,0,0,0,0,0,0,0,0,0,-0.1925,-0.1927,-0.2044,-0.2045,-0.2046,-0.2098,-0.2098,-0.2099,-0.2107,-0.2106,-0.2106,-0.2106,-0.2039,-0.2037,-0.2035,0,0,0,0,0,0,0,0,0,0,0,0,0,-0.1973,-0.1927,-0.2044,-0.2059,-0.2062,-0.2098,-0.2098,-0.2099,-0.2107,-0.2106,-0.2106,-0.2106,-0.204,-0.2038,-0.2035,-0.2022,0,0,-0.2027,-0.2026,0,0,0,0,0,0,0,0,-0.197,-0.1977,-0.2056,-0.2059,-0.2061,-0.2099,-0.2032,-0.2069,-0.2107,-0.2085,-0.2106,-0.2106,-0.2051,-0.2047,-0.2053,-0.2019,-0.2016,-0.2027,-0.2025,-0.2024,-0.2024,0,0,0,0,0,0,0,-0.1967,-0.1975,-0.2061,-0.2057,-0.2061,-0.2057,-0.2063,-0.2039,-0.2062,-0.2087,-0.2089,-0.2102,-0.2051,-0.2056,-0.2051,-0.2015,-0.2027,-0.2025,-0.2023,-0.2022,-0.1888,-0.1886,0,0,0,0,0,0,-0.1971,-0.1972,-0.2059,-0.2063,-0.202,-0.2059,-0.2066,-0.2084,-0.2065,-0.2065,-0.2102,-0.2102,-0.206,-0.2054,-0.2049,-0.2014,-0.2024,-0.2022,-0.202,-0.189,-0.1887,-0.1885,0,0,0,0,0,0,-0.1968,-0.1979,-0.2057,-0.2022,-0.2032,-0.2062,-0.2081,-0.2085,-0.2093,-0.2079,-0.2075,-0.2107,-0.206,-0.2052,-0.2031,-0.2012,-0.2021,-0.2018,-0.1892,-0.1889,-0.1886,-0.1956,0,0,0,0,0,0,-0.1965,-0.1977,-0.1989,-0.2022,-0.2034,-0.2085,-0.2082,-0.2086,-0.2103,-0.2104,-0.2081,-0.2075,-0.2059,-0.2035,-0.2029,-0.2009,-0.2016,-0.1895,-0.1891,-0.1887,-0.1956,-0.1956,-0.1955,0,0,0,0,0,-0.196,-0.1985,-0.1989,-0.2,-0.205,-0.2086,-0.2091,-0.2108,-0.2103,-0.2112,-0.2094,-0.2076,-0.2004,-0.2033,-0.2025,-0.2004,-0.1897,-0.1892,-0.1888,-0.1957,-0.1956,-0.1955,0,0,0,0,0,0,-0.1945,-0.199,-0.1995,-0.2033,-0.2058,-0.2089,-0.2104,-0.211,-0.2104,-0.21,-0.2075,-0.2068,-0.2026,-0.2002,-0.2034,-0.1945,-0.1936,-0.193,-0.1991,-0.199,-0.199,-0.2027,-0.2014,0,0,0,0,0,-0.1946,-0.1969,-0.201,-0.2036,-0.2051,-0.2073,-0.2089,-0.2102,-0.2106,-0.2105,-0.2089,-0.2049,-0.2,-0.199,-0.1945,-0.1924,-0.1935,-0.1891,-0.189,-0.1891,-0.191,-0.1967,-0.1977,-0.187,-0.187,-0.187,0,0,-0.1945,-0.1974,-0.1986,-0.2033,-0.2051,-0.2079,-0.2081,-0.2111,-0.212,-0.2095,-0.2092,-0.2048,-0.1988,-0.1954,-0.1932,-0.1939,-0.1909,-0.1885,-0.1886,-0.1906,-0.1964,-0.1976,-0.1986,-0.1867,-0.1868,-0.1868,0,0,-0.196,-0.1982,-0.2008,-0.2033,-0.2072,-0.2085,-0.2094,-0.2124,-0.2123,-0.212,-0.2081,-0.2045,-0.199,-0.1955,-0.1923,-0.1891,-0.1896,-0.185,-0.1901,-0.1956,-0.1968,-0.1979,-0.1956,-0.1965,-0.1864,-0.1865,-0.1865,0,-0.1958,-0.1996,-0.202,-0.2054,-0.2074,-0.2088,-0.2116,-0.2119,-0.2135,-0.2141,-0.2121,-0.2054,-0.1991,-0.1962,-0.1931,-0.1895,-0.1914,-0.1921,-0.1966,-0.1976,-0.1986,-0.1961,-0.197,-0.1867,-0.1867,-0.1867,-0.1866,0,-0.1993,-0.2023,-0.2041,-0.2082,-0.2106,-0.2132,-0.2149,-0.2161,-0.2154,-0.2163,-0.2142,-0.2083,-0.205,-0.2001,-0.1951,-0.1964,-0.1946,-0.1958,-0.1991,-0.2003,-0.1972,-0.198,-0.1871,-0.187,-0.1869,-0.1869,0,0,-0.1985,-0.2052,-0.2056,-0.2079,-0.2122,-0.2146,-0.2163,-0.2191,-0.222,-0.2207,-0.2242,-0.2133,-0.2125,-0.2084,-0.2026,-0.2061,-0.2093,-0.2043,-0.2044,-0.206,-0.2184,-0.2138,-0.2141,-0.215,-0.2153,-0.2155,-0.2118,0,-0.2,-0.2057,-0.2089,-0.2132,-0.2159,-0.2185,-0.2211,-0.2237,-0.2247,-0.2283,-0.2243,-0.2228,-0.2149,-0.213,-0.2154,-0.2108,-0.2126,-0.2099,-0.2134,-0.2133,-0.2129,-0.2154,-0.207,-0.2032,-0.2126,-0.2127,-0.2128,0,-0.202,-0.2054,-0.2098,-0.2165,-0.2182,-0.2205,-0.2259,-0.2281,-0.2331,-0.2348,-0.2361,-0.2342,-0.2321,-0.2279,-0.2264,-0.2264,-0.222,-0.2202,-0.2202,-0.2153,-0.2106,-0.2039,-0.2042,-0.2033,-0.214,-0.2139,-0.2138,0,-0.1991,-0.2062,-0.209,-0.2109,-0.2185,-0.2204,-0.2233,-0.2293,-0.2327,-0.2381,-0.2419,-0.2433,-0.2392,-0.2419,-0.2315,-0.2316,-0.2328,-0.2324,-0.2243,-0.2235,-0.2164,-0.2148,-0.2205,-0.2352,-0.2352,-0.2352,-0.2352,0,-0.1991,-0.2012,-0.2074,-0.2089,-0.2135,-0.2186,-0.2244,-0.2285,-0.2361,-0.2386,-0.243,-0.2435,-0.2436,-0.2423,-0.2381,-0.2317,-0.2371,-0.226,-0.2249,-0.2173,-0.2159,-0.2146,-0.2155,-0.235,-0.2351,-0.2351,-0.2351,0,-0.1942,-0.1989,-0.2023,-0.2094,-0.212,-0.2137,-0.2233,-0.2284,-0.2349,-0.2384,-0.2397,-0.2429,-0.2398,-0.2399,-0.2382,-0.2345,-0.2294,-0.229,-0.2156,-0.2131,-0.2073,-0.2087,-0.2105,-0.2048,-0.2227,-0.2226,-0.2225,0,-0.1915,-0.1927,-0.2003,-0.2025,-0.2047,-0.2099,-0.2154,-0.2252,-0.2295,-0.2344,-0.235,-0.2347,-0.2314,-0.2302,-0.2258,-0.223,-0.2215,-0.2135,-0.213,-0.2075,-0.2083,-0.2074,-0.2023,-0.2023,-0.2021,-0.2019,-0.2018,0,-0.1846,-0.1872,-0.1903,-0.1951,-0.1996,-0.2062,-0.212,-0.2167,-0.2242,-0.2262,-0.2238,-0.2224,-0.2198,-0.2137,-0.212,-0.2085,-0.2103,-0.2094,-0.2103,-0.1993,-0.1925,-0.186,-0.1988,-0.2,-0.2002,-0.2003,-0.2004,-0.2005,-0.1775,-0.1777,-0.1818,-0.1856,-0.1917,-0.1963,-0.1975,-0.2032,-0.2053,-0.2033,-0.2086,-0.2044,-0.2053,-0.2021,-0.1992,-0.1928,-0.1947,-0.1894,-0.1924,-0.1926,-0.1865,-0.1924,-0.1898,-0.1899,-0.19,-0.1901,-0.1901,0,-0.1671,-0.1689,-0.1721,-0.1759,-0.178,-0.1846,-0.1912,-0.1878,-0.1823,-0.1868,-0.1835,-0.1885,-0.1854,-0.1879,-0.1845,-0.1791,-0.1732,-0.176,-0.1738,-0.1701,-0.1804,-0.1789,-0.1662,-0.1662,-0.1662,-0.1662,-0.1662,-0.1662,-0.1613,-0.1599,-0.1619,-0.1598,-0.1626,-0.1607,-0.1613,-0.1549,-0.1557,-0.151,-0.1566,-0.1675,-0.1719,-0.1887,-0.1824,-0.1745,-0.17,-0.1644,-0.1665,-0.1755,-0.177,-0.1784,-0.1774,-0.1645,-0.1645,-0.1486,-0.1485,-0.1485]},{"header":{"parameterUnit":"m.s-1","parameterCategory":2,"la1":30.2991,"la2":30.254,"lo1":-89.0895,"lo2":-89.0444,"dy":0.0017,"dx":0.0017,"nx":28,"ny":28,"refTime":"2024-04-18T09:00:00:Z","depth":"0","parameterNumber":3,"parameterNumberName":"V-component_of_CURRENTS"},"data":[0,0,0,0,0,0,0,0,0,0,0,0,0,0,0,0,0,0,0,0,0,0,0,0,0,0,0,0,0,0,0,0,0,0,0,0,0,0,0,0,0,0,0,0,0,0,0,0,0,0,0,0,0,0,0,0,0,0,0.0071,0.0073,0,0.0231,0.0233,0.0235,0.0327,0.0327,0.0327,0.0328,0.0419,0.0421,0.0423,0,0,0,0,0,0,0,0,0,0,0,0,0,0.0014,0.0013,0.0071,0.0073,0.0075,0.0231,0.0233,0.0235,0.0327,0.0327,0.0328,0.0328,0.0418,0.0421,0.0424,0,0,0,0,0,0,0,0,0,0,0,0,0,0.0093,0.0013,0.0071,0.0139,0.0147,0.023,0.0233,0.0236,0.0327,0.0327,0.0328,0.0328,0.0417,0.0421,0.0424,0.0435,0,0,0.0434,0.0435,0,0,0,0,0,0,0,0,0.0088,0.0095,0.0127,0.0134,0.0143,0.0259,0.0246,0.0299,0.0327,0.0259,0.0328,0.0328,0.0358,0.0366,0.0398,0.044,0.0444,0.0434,0.0436,0.0437,0.0438,0,0,0,0,0,0,0,0.0082,0.0089,0.0135,0.0129,0.0139,0.0219,0.0229,0.0258,0.0304,0.0265,0.0272,0.0288,0.0362,0.0394,0.04,0.0445,0.0434,0.0437,0.0439,0.044,0.0574,0.0575,0,0,0,0,0,0,0.0051,0.0083,0.013,0.014,0.0115,0.0219,0.0231,0.0222,0.0305,0.0319,0.0288,0.0292,0.0389,0.0396,0.0404,0.0461,0.0437,0.044,0.0442,0.0572,0.0574,0.0576,0,0,0,0,0,0,0.0049,0.0053,0.0124,0.0117,0.0131,0.0218,0.0209,0.0225,0.0254,0.0323,0.0335,0.03,0.0389,0.0399,0.0441,0.0463,0.0442,0.0445,0.057,0.0573,0.0575,0.055,0,0,0,0,0,0,0.0046,0.005,0.0042,0.0113,0.013,0.0167,0.0209,0.0228,0.0264,0.0271,0.0337,0.0347,0.039,0.0435,0.0444,0.0467,0.0447,0.0568,0.0571,0.0574,0.0549,0.0551,0.0553,0,0,0,0,0,0.0043,0.0031,0.0039,0.0046,0.0111,0.0167,0.0183,0.0249,0.0263,0.0276,0.0329,0.0345,0.0461,0.0439,0.0448,0.0473,0.0567,0.0571,0.0574,0.0548,0.0551,0.0553,0,0,0,0,0,0,0.0006,0.0041,0.0052,0.0051,0.0099,0.0182,0.0202,0.0238,0.0292,0.0293,0.0353,0.0367,0.0415,0.0447,0.0421,0.0525,0.0521,0.0527,0.0498,0.0501,0.0503,0.0478,0.045,0,0,0,0,0,-0.0012,-0.0016,0.0036,0.0035,0.005,0.0119,0.0151,0.0189,0.0245,0.027,0.0325,0.0384,0.0439,0.0468,0.0516,0.0561,0.0566,0.059,0.0592,0.0593,0.0582,0.0622,0.0626,0.0588,0.0588,0.0588,0,0,-0.0025,-0.0007,-0.0008,0.0027,0.0066,0.0096,0.0139,0.0175,0.0214,0.0267,0.0333,0.0382,0.045,0.0513,0.0538,0.0541,0.0605,0.0598,0.0598,0.0586,0.0626,0.0629,0.0632,0.059,0.059,0.0589,0,0,-0.0055,-0.0046,-0.006,-0.0024,0.0023,0.0073,0.0074,0.015,0.0195,0.0254,0.0313,0.0374,0.0455,0.0524,0.0563,0.0603,0.0608,0.0624,0.0621,0.066,0.0662,0.0664,0.0654,0.0656,0.0634,0.0634,0.0634,0,-0.0075,-0.0086,-0.0049,-0.0044,-0.0012,0.0054,0.0064,0.0125,0.0213,0.0247,0.0267,0.0409,0.0464,0.055,0.0579,0.0606,0.0608,0.06,0.0659,0.0662,0.0664,0.0653,0.0655,0.0633,0.0633,0.0633,0.0633,0,-0.0111,-0.0109,-0.0111,-0.0086,-0.0043,-0.0024,0.0056,0.0103,0.016,0.0225,0.0311,0.0401,0.0481,0.0526,0.0567,0.0631,0.0617,0.0645,0.0641,0.0666,0.0653,0.0656,0.0632,0.0632,0.0632,0.0632,0,0,-0.0177,-0.0148,-0.0147,-0.0142,-0.0065,-0.004,0.0026,0.0102,0.0131,0.0235,0.0283,0.0415,0.0454,0.0503,0.0571,0.0625,0.0651,0.0642,0.0645,0.061,0.0695,0.0725,0.0731,0.0686,0.0687,0.0688,0.0669,0,-0.0216,-0.023,-0.0188,-0.0172,-0.0165,-0.008,-0.0025,0.0056,0.0132,0.0197,0.0309,0.0374,0.0451,0.0479,0.055,0.0631,0.066,0.0651,0.0695,0.0695,0.0703,0.0737,0.0793,0.0786,0.0671,0.0672,0.0672,0,-0.0255,-0.0258,-0.0265,-0.0223,-0.0214,-0.0184,-0.01,-0.0047,0.0068,0.0121,0.0213,0.029,0.0403,0.0446,0.0586,0.0573,0.062,0.0677,0.0679,0.0716,0.0732,0.0751,0.0794,0.0963,0.0676,0.0676,0.0675,0,-0.0312,-0.0303,-0.0315,-0.0298,-0.0239,-0.0219,-0.0179,-0.0073,-0.004,0.0062,0.0084,0.023,0.0282,0.0397,0.0537,0.0551,0.066,0.0694,0.0753,0.0753,0.0815,0.082,0.1013,0.0752,0.0752,0.0752,0.0752,0,-0.0352,-0.0359,-0.0351,-0.0353,-0.0364,-0.0291,-0.0279,-0.0215,-0.0142,-0.012,0.0025,0.0065,0.0271,0.0372,0.0496,0.0637,0.0626,0.0747,0.0764,0.0807,0.0812,0.0973,0.1025,0.0751,0.0751,0.0751,0.0751,0,-0.039,-0.0389,-0.0408,-0.0389,-0.0389,-0.0393,-0.0364,-0.0358,-0.0276,-0.0249,-0.0227,-0.0067,0.0084,0.0274,0.045,0.0569,0.08,0.074,0.0757,0.0778,0.1016,0.1062,0.1191,0.1279,0.0812,0.0812,0.0813,0,-0.0408,-0.0425,-0.0452,-0.0485,-0.0481,-0.0488,-0.0495,-0.0429,-0.0423,-0.033,-0.0328,-0.0181,-0.0047,0.0233,0.0481,0.0698,0.0815,0.0836,0.0899,0.1043,0.1106,0.1123,0.119,0.0952,0.0954,0.0955,0.0957,0,-0.0434,-0.0451,-0.0473,-0.0553,-0.0587,-0.0624,-0.063,-0.065,-0.0577,-0.0531,-0.045,-0.0335,-0.003,0.0291,0.0583,0.0714,0.0974,0.0872,0.1042,0.1251,0.1262,0.135,0.0911,0.097,0.0969,0.0968,0.0967,0.0966,-0.0453,-0.0491,-0.0543,-0.0618,-0.0677,-0.0747,-0.0782,-0.0771,-0.076,-0.0675,-0.0554,-0.0334,0.0153,0.0614,0.077,0.1141,0.1078,0.1261,0.13,0.1301,0.142,0.0985,0.1062,0.1062,0.1061,0.106,0.106,0,-0.0475,-0.0531,-0.0608,-0.0705,-0.0799,-0.0806,-0.0864,-0.0881,-0.0872,-0.071,-0.0575,-0.0027,0.0436,0.0869,0.14,0.1586,0.1624,0.1663,0.1734,0.1782,0.1429,0.1476,0.1624,0.1624,0.1624,0.1624,0.1624,0.1623,-0.049,-0.0573,-0.0627,-0.0793,-0.087,-0.0979,-0.102,-0.1003,-0.0897,-0.0613,-0.0287,0.0002,0.0651,0.1504,0.1989,0.2012,0.2176,0.212,0.22,0.2005,0.1971,0.194,0.2003,0.2259,0.2259,0.257,0.2573,0.2575]}],[{"header":{"parameterUnit":"m.s-1","parameterCategory":2,"la1":30.2991,"la2":30.254,"lo1":-89.0895,"lo2":-89.0444,"dy":0.0017,"dx":0.0017,"nx":28,"ny":28,"refTime":"2024-04-18T09:00:00:Z","depth":"2","parameterNumber":2,"parameterNumberName":"U-component_of_CURRENTS"},"data":[0,0,0,0,0,0,0,0,0,0,0,0,0,0,0,0,0,0,0,0,0,0,0,0,0,0,0,0,0,0,0,0,0,0,0,0,0,0,0,0,0,0,0,0,0,0,0,0,0,0,0,0,0,0,0,0,0,0,-0.1643,-0.1644,0,-0.1648,-0.1647,-0.1645,-0.1595,-0.1595,-0.1595,-0.1596,-0.1708,-0.1711,-0.1714,0,0,0,0,0,0,0,0,0,0,0,0,0,-0.146,-0.1463,-0.1642,-0.1644,-0.1646,-0.1648,-0.1647,-0.1645,-0.1595,-0.1595,-0.1595,-0.1596,-0.1707,-0.171,-0.1714,0,0,0,0,0,0,0,0,0,0,0,0,0,-0.1494,-0.1464,-0.1642,-0.1633,-0.1634,-0.1649,-0.1647,-0.1645,-0.1595,-0.1595,-0.1596,-0.1596,-0.1706,-0.171,-0.1714,-0.1736,0,0,-0.1727,-0.1729,0,0,0,0,0,0,0,0,-0.1492,-0.1499,-0.1633,-0.1634,-0.1635,-0.1636,-0.1624,-0.1687,-0.1595,-0.1592,-0.1596,-0.1596,-0.1705,-0.1709,-0.1684,-0.1742,-0.1746,-0.1728,-0.173,-0.1732,-0.1734,0,0,0,0,0,0,0,-0.149,-0.1498,-0.1627,-0.1635,-0.1636,-0.1587,-0.1591,-0.1633,-0.1636,-0.1592,-0.1593,-0.162,-0.1704,-0.168,-0.1687,-0.1748,-0.1728,-0.1732,-0.1734,-0.1736,-0.1777,-0.1776,0,0,0,0,0,0,-0.1531,-0.1497,-0.1628,-0.1629,-0.1582,-0.1591,-0.1595,-0.1622,-0.1633,-0.1639,-0.162,-0.1618,-0.1672,-0.1682,-0.1691,-0.1745,-0.1732,-0.1736,-0.1739,-0.1779,-0.1777,-0.1776,0,0,0,0,0,0,-0.1526,-0.1542,-0.1628,-0.1576,-0.1586,-0.1597,-0.1625,-0.1622,-0.1632,-0.1656,-0.1661,-0.164,-0.1673,-0.1685,-0.176,-0.1749,-0.1738,-0.1742,-0.1781,-0.1778,-0.1776,-0.1838,0,0,0,0,0,0,-0.1521,-0.154,-0.1547,-0.1579,-0.1591,-0.1668,-0.1627,-0.1623,-0.1655,-0.1652,-0.1675,-0.1683,-0.1674,-0.1754,-0.1765,-0.1755,-0.1745,-0.1782,-0.178,-0.1777,-0.1838,-0.1838,-0.1839,0,0,0,0,0,-0.1514,-0.152,-0.1547,-0.1563,-0.1609,-0.1672,-0.1671,-0.1667,-0.1657,-0.1671,-0.1688,-0.1684,-0.174,-0.176,-0.1771,-0.1762,-0.1784,-0.178,-0.1777,-0.1838,-0.1838,-0.1839,0,0,0,0,0,0,-0.1436,-0.1519,-0.1548,-0.1578,-0.1647,-0.1671,-0.1684,-0.1692,-0.1708,-0.1715,-0.1716,-0.1727,-0.1758,-0.1761,-0.1781,-0.1753,-0.1741,-0.174,-0.1782,-0.1783,-0.1783,-0.1813,-0.1749,0,0,0,0,0,-0.1435,-0.1466,-0.1554,-0.1585,-0.1631,-0.1668,-0.1686,-0.1704,-0.1739,-0.1743,-0.1764,-0.1761,-0.1744,-0.1774,-0.1763,-0.1808,-0.1818,-0.1786,-0.1787,-0.1788,-0.1812,-0.1865,-0.1875,-0.1765,-0.1765,-0.1765,0,0,-0.1419,-0.1468,-0.1487,-0.1573,-0.1621,-0.1689,-0.1675,-0.1739,-0.1763,-0.1762,-0.1797,-0.178,-0.1751,-0.176,-0.1772,-0.1779,-0.1807,-0.1784,-0.1785,-0.181,-0.1863,-0.1875,-0.1885,-0.1763,-0.1763,-0.1763,0,0,-0.1448,-0.1462,-0.1532,-0.1585,-0.1692,-0.1708,-0.1747,-0.1811,-0.1806,-0.1861,-0.1819,-0.1823,-0.1839,-0.1801,-0.1782,-0.179,-0.1797,-0.176,-0.1818,-0.1869,-0.1881,-0.1891,-0.1863,-0.1871,-0.1776,-0.1777,-0.1777,0,-0.1438,-0.1521,-0.1559,-0.1648,-0.1684,-0.1733,-0.1813,-0.1815,-0.1883,-0.1899,-0.1886,-0.1875,-0.1844,-0.1841,-0.1806,-0.1795,-0.1813,-0.1829,-0.1878,-0.1888,-0.1898,-0.1868,-0.1876,-0.1779,-0.1779,-0.1779,-0.1778,0,-0.1553,-0.1597,-0.1642,-0.176,-0.1798,-0.1865,-0.1912,-0.1944,-0.1947,-0.196,-0.1979,-0.1941,-0.1935,-0.1892,-0.1851,-0.1876,-0.1858,-0.1867,-0.1896,-0.1915,-0.1878,-0.1885,-0.1783,-0.1782,-0.1781,-0.178,0,0,-0.1593,-0.1701,-0.1717,-0.1761,-0.1851,-0.1896,-0.1943,-0.2004,-0.2046,-0.2064,-0.2107,-0.2031,-0.2025,-0.1998,-0.1944,-0.1979,-0.2005,-0.196,-0.1962,-0.1965,-0.2086,-0.2042,-0.2045,-0.2059,-0.2062,-0.2064,-0.2014,0,-0.1683,-0.1802,-0.1841,-0.193,-0.1989,-0.2015,-0.2053,-0.21,-0.2117,-0.2167,-0.213,-0.2133,-0.2056,-0.2046,-0.207,-0.2022,-0.2037,-0.2014,-0.2039,-0.2038,-0.2027,-0.2058,-0.1869,-0.181,-0.2022,-0.2023,-0.2024,0,-0.1794,-0.1846,-0.1937,-0.199,-0.2029,-0.2077,-0.2135,-0.2173,-0.2236,-0.2258,-0.2285,-0.2267,-0.2251,-0.2201,-0.2185,-0.2188,-0.2137,-0.2113,-0.2112,-0.2069,-0.2011,-0.1832,-0.1816,-0.2036,-0.2035,-0.2034,-0.2033,0,-0.1778,-0.1895,-0.1939,-0.1964,-0.2059,-0.2093,-0.2129,-0.2203,-0.2239,-0.2303,-0.2346,-0.2368,-0.232,-0.2345,-0.2232,-0.2235,-0.2236,-0.2229,-0.214,-0.2132,-0.1973,-0.1949,-0.225,-0.225,-0.225,-0.225,-0.2251,0,-0.1814,-0.1857,-0.193,-0.1959,-0.2023,-0.2081,-0.2159,-0.2206,-0.2292,-0.232,-0.2367,-0.237,-0.2363,-0.2343,-0.2298,-0.2225,-0.2276,-0.2161,-0.2144,-0.1977,-0.1955,-0.2163,-0.2154,-0.2248,-0.2249,-0.2249,-0.225,0,-0.1776,-0.1835,-0.189,-0.1982,-0.2014,-0.2041,-0.2151,-0.2205,-0.2286,-0.232,-0.2333,-0.236,-0.2319,-0.2315,-0.2286,-0.2245,-0.2227,-0.218,-0.1942,-0.1901,-0.2068,-0.2061,-0.2113,-0.2111,-0.211,-0.2109,-0.2108,0,-0.1756,-0.1781,-0.187,-0.19,-0.194,-0.2005,-0.206,-0.2172,-0.2224,-0.2275,-0.2281,-0.2266,-0.2224,-0.22,-0.2133,-0.2096,-0.215,-0.1909,-0.1894,-0.209,-0.2067,-0.2062,-0.2057,-0.1659,-0.1655,-0.1651,-0.1648,0,-0.17,-0.1731,-0.1763,-0.1819,-0.1873,-0.1954,-0.2027,-0.2071,-0.2156,-0.2182,-0.2158,-0.2135,-0.2079,-0.1948,-0.1915,-0.1869,-0.1925,-0.1837,-0.2124,-0.1747,-0.1666,-0.1643,-0.1652,-0.1616,-0.1619,-0.1622,-0.1624,-0.1625,-0.1623,-0.1623,-0.1656,-0.1702,-0.1779,-0.1845,-0.1855,-0.1922,-0.1948,-0.191,-0.1965,-0.1864,-0.1841,-0.1702,-0.1636,-0.1585,-0.1715,-0.1649,-0.1658,-0.1672,-0.1652,-0.1578,-0.1501,-0.1503,-0.1505,-0.1507,-0.1509,0,-0.1485,-0.1514,-0.1541,-0.16,-0.1646,-0.1729,-0.1792,-0.1743,-0.168,-0.1681,-0.1637,-0.1454,-0.1396,-0.1402,-0.1267,-0.1275,-0.1241,-0.1237,-0.1177,-0.1209,-0.1238,-0.1196,-0.0923,-0.0921,-0.092,-0.0919,0,0,-0.1413,-0.1378,-0.1392,-0.1421,-0.1494,-0.149,-0.1489,-0.1376,-0.134,-0.1218,-0.1173,-0.1278,-0.1333,-0.111,-0.1075,-0.0974,-0.1076,-0.0926,-0.139,-0.1347,-0.1373,-0.1465,-0.1435,0,0,0,0,0]},{"header":{"parameterUnit":"m.s-1","parameterCategory":2,"la1":30.2991,"la2":30.254,"lo1":-89.0895,"lo2":-89.0444,"dy":0.0017,"dx":0.0017,"nx":28,"ny":28,"refTime":"2024-04-18T09:00:00:Z","depth":"2","parameterNumber":3,"parameterNumberName":"V-component_of_CURRENTS"},"data":[0,0,0,0,0,0,0,0,0,0,0,0,0,0,0,0,0,0,0,0,0,0,0,0,0,0,0,0,0,0,0,0,0,0,0,0,0,0,0,0,0,0,0,0,0,0,0,0,0,0,0,0,0,0,0,0,0,0,-0.0626,-0.0623,0,-0.0581,-0.0583,-0.0585,-0.0613,-0.0612,-0.061,-0.0609,-0.016,-0.015,-0.0139,0,0,0,0,0,0,0,0,0,0,0,0,0,-0.0859,-0.0857,-0.0627,-0.0623,-0.062,-0.0581,-0.0583,-0.0585,-0.0613,-0.0612,-0.061,-0.0608,-0.0163,-0.0151,-0.0138,0,0,0,0,0,0,0,0,0,0,0,0,0,-0.081,-0.0856,-0.0627,-0.0606,-0.0601,-0.058,-0.0583,-0.0586,-0.0614,-0.0611,-0.0609,-0.0607,-0.0168,-0.0152,-0.0137,-0.0086,0,0,-0.0089,-0.0082,0,0,0,0,0,0,0,0,-0.0813,-0.0806,-0.0612,-0.0607,-0.0601,-0.0573,-0.0499,-0.0388,-0.0614,-0.0642,-0.0609,-0.0606,-0.0241,-0.022,-0.0267,-0.0065,-0.0046,-0.0087,-0.0078,-0.0071,-0.0066,0,0,0,0,0,0,0,-0.0816,-0.0808,-0.0641,-0.0608,-0.0601,-0.0637,-0.0631,-0.0483,-0.0472,-0.064,-0.0634,-0.0579,-0.024,-0.0283,-0.0255,-0.0039,-0.0088,-0.0074,-0.0064,-0.0058,0.0401,0.0404,0,0,0,0,0,0,-0.0754,-0.081,-0.0641,-0.0636,-0.0668,-0.0632,-0.0626,-0.061,-0.0483,-0.0455,-0.0581,-0.058,-0.0311,-0.0273,-0.0238,-0.0001,-0.0071,-0.0056,-0.0047,0.0398,0.0402,0.0404,0,0,0,0,0,0,-0.076,-0.0741,-0.0643,-0.0695,-0.0681,-0.0626,-0.0611,-0.0609,-0.0575,-0.0437,-0.0408,-0.0534,-0.0308,-0.026,-0.0027,0.0012,-0.0049,-0.0035,0.0395,0.0399,0.0403,0.037,0,0,0,0,0,0,-0.0768,-0.0746,-0.0735,-0.0692,-0.0674,-0.056,-0.061,-0.0609,-0.0534,-0.0532,-0.0386,-0.035,-0.0302,-0.0051,-0.0012,0.0033,-0.0023,0.0391,0.0397,0.0402,0.0368,0.0373,0.0377,0,0,0,0,0,-0.0778,-0.0777,-0.0736,-0.0714,-0.0656,-0.0553,-0.0551,-0.0527,-0.0532,-0.0498,-0.039,-0.035,0.0007,-0.0034,0.0011,0.006,0.0389,0.0395,0.0401,0.0366,0.0372,0.0377,0,0,0,0,0,0,-0.0881,-0.0775,-0.0731,-0.0698,-0.0582,-0.0544,-0.0531,-0.0483,-0.0397,-0.0376,-0.0279,-0.0231,-0.0039,0.004,-0.0008,0.0205,0.0192,0.0207,0.0149,0.0156,0.0161,0.0119,-0.0009,0,0,0,0,0,-0.0884,-0.0862,-0.0722,-0.069,-0.0636,-0.0568,-0.0529,-0.0472,-0.0372,-0.034,-0.0232,-0.0113,0.0001,0.0111,0.0215,0.0383,0.0388,0.0435,0.0439,0.0442,0.044,0.0477,0.0482,0.0425,0.0425,0.0425,0,0,-0.0905,-0.0848,-0.0828,-0.0707,-0.0656,-0.0561,-0.0549,-0.0445,-0.0372,-0.0285,-0.0171,-0.0075,0.0049,0.0188,0.0282,0.0283,0.046,0.045,0.0451,0.0447,0.0484,0.0488,0.0493,0.0429,0.0428,0.0427,0,0,-0.0895,-0.0886,-0.0821,-0.0741,-0.0584,-0.054,-0.0472,-0.0358,-0.0322,-0.0151,-0.0114,0.0026,0.0225,0.0283,0.0346,0.0463,0.047,0.0502,0.0517,0.0553,0.0557,0.056,0.0546,0.0549,0.0518,0.0518,0.0518,0,-0.0901,-0.0834,-0.078,-0.0688,-0.0632,-0.051,-0.0409,-0.0357,-0.0175,-0.0126,-0.0089,0.0129,0.0248,0.0379,0.0399,0.047,0.0472,0.0478,0.0552,0.0556,0.056,0.0546,0.0549,0.0517,0.0517,0.0517,0.0517,0,-0.0808,-0.0765,-0.0735,-0.0598,-0.0525,-0.0434,-0.0306,-0.0222,-0.0149,-0.0076,0.0084,0.0208,0.0328,0.0386,0.044,0.0528,0.0511,0.0533,0.052,0.0562,0.0546,0.055,0.0516,0.0516,0.0516,0.0517,0,0,-0.0759,-0.0684,-0.0661,-0.0636,-0.0483,-0.0421,-0.0304,-0.0169,-0.0121,0.0046,0.0103,0.0293,0.0336,0.0407,0.048,0.0539,0.0565,0.0553,0.0555,0.0505,0.0605,0.0634,0.064,0.0593,0.0594,0.0595,0.0571,0,-0.0678,-0.059,-0.0538,-0.0452,-0.0409,-0.0324,-0.0254,-0.0124,-0.0032,0.0047,0.0178,0.0266,0.0348,0.039,0.0467,0.0546,0.0578,0.0567,0.0602,0.0603,0.0596,0.0648,0.0595,0.0574,0.0574,0.0575,0.0575,0,-0.0566,-0.0542,-0.0471,-0.0459,-0.0424,-0.0349,-0.0273,-0.0185,-0.0047,0.0017,0.0136,0.0216,0.0343,0.0375,0.0522,0.0509,0.0549,0.0601,0.0602,0.0644,0.064,0.0543,0.058,0.0581,0.058,0.058,0.058,0,-0.0597,-0.0509,-0.0498,-0.0478,-0.0399,-0.036,-0.0309,-0.0181,-0.0145,-0.0022,0.0013,0.0175,0.0225,0.0341,0.0476,0.0488,0.0598,0.062,0.0673,0.0672,0.0644,0.064,0.068,0.068,0.068,0.068,0.068,0,-0.0577,-0.055,-0.0527,-0.0514,-0.0501,-0.0423,-0.0383,-0.0307,-0.0218,-0.0183,-0.003,0.0017,0.0218,0.0318,0.0439,0.0575,0.0564,0.0677,0.0685,0.0632,0.0628,0.0658,0.0655,0.0679,0.068,0.068,0.068,0,-0.0598,-0.0578,-0.0572,-0.0528,-0.052,-0.0512,-0.0465,-0.0459,-0.0347,-0.0307,-0.0282,-0.0116,0.0036,0.0222,0.0392,0.0506,0.0641,0.067,0.0579,0.058,0.0686,0.0683,0.0732,0.0733,0.0734,0.0735,0.0735,0,-0.0608,-0.0608,-0.0618,-0.0647,-0.0622,-0.0612,-0.0624,-0.0533,-0.0514,-0.0385,-0.0379,-0.023,-0.0094,0.018,0.0401,0.0606,0.0626,0.0649,0.0695,0.0698,0.07,0.0695,0.0691,0.0617,0.0617,0.0617,0.0616,0,-0.0631,-0.0638,-0.0665,-0.075,-0.078,-0.0812,-0.0798,-0.0781,-0.0677,-0.0604,-0.0493,-0.0376,-0.0097,0.0154,0.0426,0.0539,0.0636,0.0652,0.068,0.0634,0.0595,0.0595,0.0594,0.0614,0.0614,0.0614,0.0615,0.0615,-0.0665,-0.0717,-0.0802,-0.0889,-0.0931,-0.0987,-0.0996,-0.0946,-0.0896,-0.0735,-0.0614,-0.0408,-0.0147,0.0256,0.0454,0.0629,0.0645,0.0686,0.0684,0.0683,0.0696,0.0665,0.0695,0.0695,0.0696,0.0696,0.0697,0,-0.0763,-0.0828,-0.0942,-0.107,-0.1192,-0.1134,-0.1114,-0.1075,-0.0982,-0.081,-0.0645,-0.0378,-0.0072,0.0196,0.048,0.0668,0.0649,0.0682,0.0626,0.0627,0.0628,0.0637,0.062,0.062,0.0621,0.0621,0,0,-0.0816,-0.0987,-0.1094,-0.1337,-0.1364,-0.1431,-0.1384,-0.1224,-0.1053,-0.0849,-0.0671,-0.0419,-0.0075,0.0114,0.0347,0.0492,0.0506,0.0492,0.053,0.0436,0.0435,0.0603,0.0615,0,0,0,0,0]}],[{"header":{"parameterUnit":"m.s-1","parameterCategory":2,"la1":30.2991,"la2":30.254,"lo1":-89.0895,"lo2":-89.0444,"dy":0.0017,"dx":0.0017,"nx":28,"ny":28,"refTime":"2024-04-18T09:00:00:Z","depth":"4","parameterNumber":2,"parameterNumberName":"U-component_of_CURRENTS"},"data":[0,0,0,0,0,0,0,0,0,0,0,0,0,0,0,0,0,0,0,0,0,0,0,0,0,0,0,0,0,0,0,0,0,0,0,0,0,0,0,0,0,0,0,0,0,0,0,0,0,0,0,0,0,0,0,0,0,0,-0.0784,-0.0784,0,-0.0824,-0.0824,-0.0825,-0.0852,-0.0853,-0.0853,-0.0853,-0.0864,-0.0864,-0.0864,0,0,0,0,0,0,0,0,0,0,0,0,0,-0.0727,-0.0728,-0.0784,-0.0784,-0.0785,-0.0824,-0.0824,-0.0825,-0.0852,-0.0853,-0.0853,-0.0854,-0.0864,-0.0864,-0.0864,0,0,0,0,0,0,0,0,0,0,0,0,0,-0.0757,-0.0728,-0.0783,-0.0804,-0.0806,-0.0824,-0.0824,-0.0825,-0.0852,-0.0853,-0.0853,-0.0854,-0.0864,-0.0864,-0.0864,-0.0855,0,0,-0.0864,-0.0864,0,0,0,0,0,0,0,0,-0.0755,-0.0759,-0.0801,-0.0803,-0.0805,-0.0835,-0.0808,-0.0834,-0.0852,-0.0834,-0.0853,-0.0854,-0.0852,-0.0853,-0.0858,-0.0855,-0.0856,-0.0864,-0.0864,-0.0864,-0.0864,0,0,0,0,0,0,0,-0.0753,-0.0757,-0.0798,-0.0801,-0.0804,-0.081,-0.0815,-0.0813,-0.0838,-0.0835,-0.0838,-0.0844,-0.0853,-0.0858,-0.0859,-0.0856,-0.0864,-0.0864,-0.0864,-0.0864,-0.0902,-0.0903,0,0,0,0,0,0,-0.075,-0.0755,-0.0797,-0.08,-0.0782,-0.0811,-0.0816,-0.0824,-0.0839,-0.0842,-0.0843,-0.0845,-0.0858,-0.0859,-0.0859,-0.0904,-0.0864,-0.0864,-0.0864,-0.0901,-0.0903,-0.0904,0,0,0,0,0,0,-0.0748,-0.0753,-0.0796,-0.0779,-0.0785,-0.0811,-0.082,-0.0824,-0.0841,-0.0846,-0.0848,-0.0857,-0.0858,-0.0859,-0.0875,-0.0902,-0.0864,-0.0864,-0.09,-0.0902,-0.0903,-0.0957,0,0,0,0,0,0,-0.0747,-0.0752,-0.0761,-0.0779,-0.0786,-0.0811,-0.082,-0.0825,-0.0844,-0.0847,-0.0858,-0.0859,-0.0859,-0.0875,-0.0875,-0.0901,-0.0864,-0.0899,-0.0901,-0.0903,-0.0954,-0.0961,-0.0966,0,0,0,0,0,-0.0744,-0.0752,-0.0761,-0.0767,-0.0795,-0.0811,-0.0815,-0.0835,-0.0844,-0.0851,-0.0866,-0.0859,-0.0887,-0.0875,-0.0875,-0.0903,-0.0898,-0.09,-0.0903,-0.0952,-0.0959,-0.0966,0,0,0,0,0,0,-0.0732,-0.0756,-0.0767,-0.0782,-0.0798,-0.0817,-0.0827,-0.0839,-0.0857,-0.0863,-0.0867,-0.0869,-0.0891,-0.0887,-0.0874,-0.0919,-0.0893,-0.0896,-0.0931,-0.0938,-0.0943,-0.0966,-0.0864,0,0,0,0,0,-0.0733,-0.0745,-0.0767,-0.078,-0.0788,-0.0809,-0.082,-0.0834,-0.085,-0.0859,-0.0871,-0.0885,-0.0898,-0.091,-0.0914,-0.0937,-0.0945,-0.0956,-0.0961,-0.0966,-0.0985,-0.098,-0.0988,-0.0911,-0.0911,-0.0911,0,0,-0.0732,-0.0747,-0.0755,-0.0778,-0.0792,-0.0808,-0.0817,-0.0836,-0.086,-0.0856,-0.0892,-0.0898,-0.0906,-0.0935,-0.0946,-0.0939,-0.1003,-0.0969,-0.0974,-0.099,-0.0984,-0.0991,-0.0998,-0.0913,-0.0913,-0.0912,0,0,-0.0727,-0.0749,-0.0754,-0.077,-0.0794,-0.0811,-0.0819,-0.0846,-0.0871,-0.0904,-0.0909,-0.0944,-0.0957,-0.0983,-0.0994,-0.1034,-0.1025,-0.1026,-0.1084,-0.108,-0.1086,-0.1091,-0.1159,-0.1169,-0.1038,-0.1039,-0.1039,0,-0.0725,-0.0739,-0.0758,-0.0768,-0.0795,-0.0814,-0.0836,-0.0857,-0.089,-0.0929,-0.0923,-0.0974,-0.099,-0.1032,-0.1063,-0.1051,-0.1057,-0.1057,-0.1087,-0.1092,-0.1097,-0.1164,-0.1175,-0.1041,-0.1041,-0.1041,-0.104,0,-0.072,-0.0739,-0.0744,-0.077,-0.0802,-0.082,-0.0861,-0.0885,-0.0923,-0.0968,-0.1022,-0.1036,-0.1081,-0.1085,-0.1098,-0.1142,-0.1143,-0.1086,-0.1069,-0.1108,-0.1177,-0.1188,-0.1046,-0.1044,-0.1044,-0.1043,0,0,-0.0693,-0.0733,-0.0736,-0.0765,-0.0811,-0.0839,-0.088,-0.0945,-0.0989,-0.1028,-0.1086,-0.1142,-0.1171,-0.1185,-0.1185,-0.1196,-0.127,-0.1169,-0.1167,-0.1239,-0.1306,-0.1203,-0.1205,-0.1195,-0.1196,-0.1197,-0.1358,0,-0.0684,-0.0704,-0.0743,-0.079,-0.0811,-0.0864,-0.0909,-0.0978,-0.1034,-0.1088,-0.1133,-0.1182,-0.1199,-0.1217,-0.124,-0.1245,-0.1292,-0.1236,-0.1256,-0.1259,-0.1162,-0.121,-0.12,-0.1366,-0.1369,-0.137,-0.1372,0,-0.0665,-0.0689,-0.0727,-0.0816,-0.0836,-0.0872,-0.0968,-0.1023,-0.1107,-0.1135,-0.1196,-0.1236,-0.1308,-0.1271,-0.1351,-0.1305,-0.1338,-0.1335,-0.1339,-0.1228,-0.1173,-0.1307,-0.1391,-0.1389,-0.1388,-0.1387,-0.1385,0,-0.0628,-0.0688,-0.0727,-0.0751,-0.084,-0.0885,-0.095,-0.1048,-0.1103,-0.1171,-0.1214,-0.1281,-0.1342,-0.1342,-0.1419,-0.1378,-0.1475,-0.1411,-0.1364,-0.1361,-0.1382,-0.1374,-0.1466,-0.1466,-0.1465,-0.1465,-0.1464,0,-0.0599,-0.0635,-0.0711,-0.0728,-0.0792,-0.0887,-0.0951,-0.1012,-0.1097,-0.1191,-0.1255,-0.1309,-0.1358,-0.1439,-0.1441,-0.146,-0.1513,-0.14,-0.1382,-0.1409,-0.1402,-0.1394,-0.1383,-0.1471,-0.1469,-0.1468,-0.1467,0,-0.0545,-0.059,-0.0642,-0.0739,-0.0766,-0.0827,-0.0925,-0.0975,-0.1073,-0.118,-0.1212,-0.1367,-0.1463,-0.1516,-0.1563,-0.1522,-0.1506,-0.1503,-0.1609,-0.159,-0.1403,-0.1393,-0.1459,-0.1456,-0.1454,-0.1452,-0.145,0,-0.0518,-0.0528,-0.0621,-0.0652,-0.0695,-0.0764,-0.0804,-0.0915,-0.0987,-0.1217,-0.1281,-0.1444,-0.1526,-0.1541,-0.1562,-0.1555,-0.1524,-0.1541,-0.1405,-0.1421,-0.1397,-0.1391,-0.1385,-0.1447,-0.1446,-0.1446,-0.1445,0,-0.0465,-0.0498,-0.0534,-0.0574,-0.0627,-0.0675,-0.0771,-0.0814,-0.1003,-0.1107,-0.1299,-0.1371,-0.1494,-0.1509,-0.1533,-0.1509,-0.1514,-0.1517,-0.152,-0.1393,-0.1407,-0.1384,-0.1381,-0.1438,-0.1439,-0.1439,-0.144,0,-0.0424,-0.042,-0.0449,-0.05,-0.0551,-0.0608,-0.0658,-0.0779,-0.0866,-0.1165,-0.1227,-0.1384,-0.1521,-0.1492,-0.1496,-0.1469,-0.1421,-0.1355,-0.1365,-0.1374,-0.1254,-0.1254,-0.1242,0,0,0,0,0,-0.0381,-0.0355,-0.0374,-0.0419,-0.0473,-0.0507,-0.0651,-0.0723,-0.0927,-0.104,-0.1135,-0.1238,-0.1303,-0.136,-0.1304,-0.1403,-0.139,-0.1329,-0.131,-0.1395,-0.1404,-0.1261,0,0,0,0,0,0,-0.034,-0.0334,-0.0332,-0.0341,-0.0361,-0.0409,-0.0504,-0.0656,-0.0724,-0.0947,-0.0976,-0.1128,-0.1177,-0.1298,-0.1263,-0.1275,-0.1232,-0.1407,-0.1403,-0.139,-0.1398,-0.1405,-0.1261,0,0,0,0,0]},{"header":{"parameterUnit":"m.s-1","parameterCategory":2,"la1":30.2991,"la2":30.254,"lo1":-89.0895,"lo2":-89.0444,"dy":0.0017,"dx":0.0017,"nx":28,"ny":28,"refTime":"2024-04-18T09:00:00:Z","depth":"4","parameterNumber":3,"parameterNumberName":"V-component_of_CURRENTS"},"data":[0,0,0,0,0,0,0,0,0,0,0,0,0,0,0,0,0,0,0,0,0,0,0,0,0,0,0,0,0,0,0,0,0,0,0,0,0,0,0,0,0,0,0,0,0,0,0,0,0,0,0,0,0,0,0,0,0,0,-0.0216,-0.0216,0,-0.0215,-0.0215,-0.0215,-0.0201,-0.02,-0.02,-0.0199,-0.018,-0.018,-0.018,0,0,0,0,0,0,0,0,0,0,0,0,0,-0.0202,-0.0202,-0.0216,-0.0216,-0.0216,-0.0215,-0.0215,-0.0215,-0.0201,-0.02,-0.02,-0.0199,-0.018,-0.018,-0.018,0,0,0,0,0,0,0,0,0,0,0,0,0,-0.0206,-0.0203,-0.0216,-0.0208,-0.0208,-0.0215,-0.0215,-0.0215,-0.0201,-0.02,-0.02,-0.0199,-0.018,-0.018,-0.018,-0.0191,0,0,-0.0179,-0.0179,0,0,0,0,0,0,0,0,-0.0206,-0.0206,-0.021,-0.0209,-0.0208,-0.0207,-0.0203,-0.0206,-0.0201,-0.0204,-0.0199,-0.0199,-0.0187,-0.0187,-0.0189,-0.019,-0.0189,-0.0179,-0.0179,-0.0179,-0.0179,0,0,0,0,0,0,0,-0.0205,-0.0206,-0.0216,-0.0209,-0.0209,-0.0204,-0.0204,-0.0204,-0.0199,-0.0204,-0.0202,-0.0202,-0.0187,-0.0189,-0.0188,-0.0189,-0.0179,-0.0179,-0.0179,-0.0179,-0.0189,-0.0189,0,0,0,0,0,0,-0.0206,-0.0206,-0.0216,-0.0216,-0.0205,-0.0204,-0.0204,-0.0208,-0.02,-0.0198,-0.0202,-0.0201,-0.019,-0.0188,-0.0187,-0.0193,-0.0179,-0.0179,-0.0179,-0.0188,-0.0189,-0.0189,0,0,0,0,0,0,-0.0205,-0.0207,-0.0216,-0.021,-0.0211,-0.0205,-0.021,-0.0209,-0.0211,-0.0199,-0.0196,-0.0206,-0.0189,-0.0188,-0.0193,-0.0192,-0.0179,-0.0178,-0.0188,-0.0188,-0.0189,-0.0209,0,0,0,0,0,0,-0.0205,-0.0207,-0.0211,-0.0211,-0.0212,-0.0229,-0.021,-0.0209,-0.0211,-0.021,-0.0201,-0.0199,-0.0188,-0.0193,-0.0193,-0.0192,-0.0178,-0.0187,-0.0188,-0.0189,-0.0208,-0.021,-0.0212,0,0,0,0,0,-0.0205,-0.0217,-0.0212,-0.0213,-0.0218,-0.023,-0.0231,-0.0224,-0.0212,-0.0222,-0.0213,-0.0199,-0.0197,-0.0194,-0.0193,-0.0192,-0.0187,-0.0188,-0.0189,-0.0207,-0.0209,-0.0212,0,0,0,0,0,0,-0.0214,-0.0217,-0.0211,-0.0223,-0.0228,-0.0227,-0.0235,-0.0228,-0.0229,-0.0226,-0.0209,-0.0207,-0.0209,-0.0202,-0.0199,-0.0197,-0.0187,-0.0188,-0.0201,-0.0204,-0.0206,-0.0196,-0.0178,0,0,0,0,0,-0.0218,-0.0227,-0.0229,-0.0239,-0.0243,-0.0239,-0.0242,-0.0239,-0.0239,-0.0238,-0.0231,-0.0222,-0.0213,-0.021,-0.0207,-0.0211,-0.0174,-0.0208,-0.021,-0.0212,-0.0204,-0.018,-0.0178,-0.0192,-0.0192,-0.0192,0,0,-0.0223,-0.0226,-0.0231,-0.0241,-0.0243,-0.0262,-0.024,-0.0251,-0.0261,-0.0237,-0.0248,-0.0233,-0.0217,-0.0218,-0.0218,-0.0212,-0.018,-0.0213,-0.0215,-0.0205,-0.018,-0.0179,-0.0177,-0.0193,-0.0192,-0.0192,0,0,-0.0249,-0.0243,-0.0265,-0.0273,-0.0281,-0.028,-0.0285,-0.0289,-0.0283,-0.0295,-0.0271,-0.0252,-0.0258,-0.0233,-0.0223,-0.0236,-0.0195,-0.0239,-0.024,-0.0217,-0.0215,-0.0213,-0.0124,-0.0115,-0.0238,-0.0238,-0.0239,0,-0.0256,-0.0283,-0.0273,-0.0299,-0.0307,-0.0291,-0.0318,-0.0314,-0.0318,-0.0308,-0.0304,-0.0282,-0.026,-0.0243,-0.0236,-0.0238,-0.0202,-0.0231,-0.0219,-0.0216,-0.0214,-0.0124,-0.0113,-0.024,-0.0239,-0.0239,-0.0239,0,-0.03,-0.0322,-0.0336,-0.036,-0.0368,-0.0388,-0.0382,-0.0387,-0.0375,-0.0358,-0.0343,-0.0314,-0.0291,-0.0282,-0.0258,-0.0231,-0.02,-0.0225,-0.021,-0.0214,-0.0118,-0.0106,-0.0241,-0.0241,-0.024,-0.024,0,0,-0.0314,-0.036,-0.0365,-0.039,-0.0401,-0.0417,-0.0427,-0.0425,-0.0421,-0.0408,-0.0391,-0.0357,-0.0319,-0.0304,-0.0271,-0.0241,-0.0167,-0.0223,-0.0221,-0.0128,-0.0068,-0.0088,-0.0076,-0.0202,-0.0202,-0.0201,0.0008,0,-0.0353,-0.0416,-0.0422,-0.0475,-0.0505,-0.0493,-0.0501,-0.049,-0.0468,-0.0445,-0.0391,-0.0366,-0.0335,-0.0315,-0.0277,-0.02,-0.0144,-0.0217,-0.0083,-0.0077,-0.0092,-0.0067,-0.0198,0.0018,0.002,0.0022,0.0024,0,-0.0394,-0.0432,-0.0495,-0.0533,-0.0543,-0.0567,-0.0568,-0.0574,-0.0525,-0.05,-0.0456,-0.0405,-0.0324,-0.0318,-0.0175,-0.0228,-0.0139,-0.0082,-0.0074,-0.008,-0.0078,0.0012,0.0046,0.0044,0.0042,0.0041,0.004,0,-0.0413,-0.0479,-0.0532,-0.0548,-0.0587,-0.0606,-0.0617,-0.059,-0.0581,-0.0528,-0.0497,-0.0414,-0.0345,-0.0266,-0.0116,-0.0146,0.0041,0.0011,0.0087,0.009,0.0056,0.0051,0.0108,0.0108,0.0108,0.0107,0.0106,0,-0.0447,-0.0491,-0.0552,-0.0581,-0.0635,-0.0641,-0.0667,-0.0662,-0.0625,-0.0594,-0.0521,-0.0463,-0.0334,-0.0207,-0.0106,0.0046,0.0058,0.0109,0.013,0.0049,0.0041,0.0068,0.0061,0.0115,0.0113,0.0112,0.011,0,-0.0461,-0.0503,-0.0573,-0.0631,-0.0652,-0.069,-0.0714,-0.0718,-0.0679,-0.0634,-0.0611,-0.0466,-0.0305,-0.0163,0.0018,0.008,0.0203,0.0254,0.0221,0.0234,0.0247,0.0236,0.0362,0.0363,0.0364,0.0364,0.0365,0,-0.0477,-0.0515,-0.0607,-0.0659,-0.0695,-0.0745,-0.0768,-0.0753,-0.0738,-0.0631,-0.0595,-0.0424,-0.0318,-0.0048,0.0074,0.0274,0.0277,0.0363,0.0249,0.0259,0.0268,0.0256,0.0245,0.0366,0.0366,0.0366,0.0366,0,-0.0501,-0.0537,-0.0591,-0.0691,-0.0748,-0.0799,-0.0821,-0.0807,-0.0756,-0.0716,-0.0561,-0.0417,-0.0217,-0.0035,0.0133,0.0257,0.0302,0.037,0.0368,0.0261,0.0265,0.027,0.0258,0.0368,0.0368,0.0368,0.0368,0,-0.0512,-0.0548,-0.062,-0.071,-0.0788,-0.0826,-0.0841,-0.0798,-0.0767,-0.064,-0.0579,-0.038,-0.0246,-0.0039,0.0105,0.0231,0.0237,0.0247,0.0252,0.0251,0.012,0.0102,0.0191,0,0,0,0,0,-0.0515,-0.0547,-0.0632,-0.072,-0.0803,-0.0846,-0.0858,-0.0852,-0.0785,-0.0684,-0.0632,-0.0453,-0.0211,-0.0091,0.0032,0.0085,0.0239,0.0228,0.0247,0.0381,0.0378,0.0236,0,0,0,0,0,0,-0.0512,-0.0576,-0.0616,-0.0716,-0.078,-0.0846,-0.086,-0.0827,-0.0758,-0.0676,-0.0539,-0.045,-0.0211,-0.0282,0.0028,0.007,0.0091,0.0351,0.0352,0.0382,0.038,0.0378,0.0231,0,0,0,0,0]}]]